Time,TemperatureF,DewpointF,PressureIn,WindDirection,WindDirectionDegrees,WindSpeedMPH,WindSpeedGustMPH,Humidity,HourlyPrecipIn,Conditions,Clouds,dailyrainin,SoftwareType,DateUTC
2013-03-08 00:04:00,26.1,20.2,29.55,ESE,111,0.0,3.0,78,0.00,,---,0.00,VWS V12.08,2013-03-08 06:04:00,
2013-03-08 00:09:00,26.1,20.2,29.55,ESE,111,0.0,3.0,78,0.00,,---,0.00,VWS V12.08,2013-03-08 06:09:00,
2013-03-08 00:17:00,26.2,20.3,29.55,ESE,110,0.0,3.0,78,0.00,,---,0.00,VWS V12.08,2013-03-08 06:17:00,
2013-03-08 00:22:00,26.2,20.3,29.55,ESE,112,0.0,3.0,78,0.00,,---,0.00,VWS V12.08,2013-03-08 06:22:00,
2013-03-08 00:27:00,26.2,20.3,29.55,ESE,106,0.0,3.0,78,0.00,,---,0.00,VWS V12.08,2013-03-08 06:27:00,
2013-03-08 00:32:00,26.4,20.5,29.55,ESE,104,0.0,1.0,78,0.00,,---,0.00,VWS V12.08,2013-03-08 06:32:00,
2013-03-08 00:38:00,26.4,20.5,29.55,ESE,112,0.0,1.0,78,0.00,,---,0.00,VWS V12.08,2013-03-08 06:38:00,
2013-03-08 00:43:00,26.4,20.5,29.55,ESE,105,1.0,1.0,78,0.00,,---,0.00,VWS V12.08,2013-03-08 06:43:00,
2013-03-08 00:48:00,26.3,20.7,29.55,ESE,113,1.0,2.0,79,0.00,,---,0.00,VWS V12.08,2013-03-08 06:48:00,
2013-03-08 00:54:00,26.2,20.6,29.55,ESE,115,0.0,2.0,79,0.00,,---,0.00,VWS V12.08,2013-03-08 06:54:00,
2013-03-08 01:00:00,26.1,20.5,29.55,ESE,116,0.0,2.0,79,0.00,,---,0.00,VWS V12.08,2013-03-08 07:00:00,
2013-03-08 01:05:00,26.1,20.5,29.56,ESE,115,0.0,1.0,79,0.00,,---,0.00,VWS V12.08,2013-03-08 07:05:00,
2013-03-08 01:10:00,25.9,20.3,29.56,ESE,115,0.0,1.0,79,0.00,,---,0.00,VWS V12.08,2013-03-08 07:10:00,
2013-03-08 01:15:00,25.9,20.3,29.56,ESE,116,0.0,2.0,79,0.00,,---,0.00,VWS V12.08,2013-03-08 07:15:00,
2013-03-08 01:21:00,25.8,20.2,29.55,ESE,118,0.0,2.0,79,0.00,,---,0.00,VWS V12.08,2013-03-08 07:21:00,
2013-03-08 01:26:00,25.7,20.4,29.56,ESE,119,1.0,2.0,80,0.00,,---,0.00,VWS V12.08,2013-03-08 07:26:00,
2013-03-08 01:31:00,25.6,20.3,29.56,ESE,121,1.0,1.0,80,0.00,,---,0.00,VWS V12.08,2013-03-08 07:31:00,
2013-03-08 01:37:00,25.4,20.1,29.56,ESE,119,0.0,1.0,80,0.00,,---,0.00,VWS V12.08,2013-03-08 07:37:00,
2013-03-08 01:42:00,25.2,19.9,29.56,ESE,120,1.0,1.0,80,0.00,,---,0.00,VWS V12.08,2013-03-08 07:42:00,
2013-03-08 01:48:00,25.0,20.0,29.55,ESE,121,0.0,2.0,81,0.00,,---,0.00,VWS V12.08,2013-03-08 07:48:00,
2013-03-08 01:53:00,24.9,19.9,29.55,ESE,118,0.0,2.0,81,0.00,,---,0.00,VWS V12.08,2013-03-08 07:53:00,
2013-03-08 01:58:00,24.7,19.7,29.54,ESE,123,1.0,2.0,81,0.00,,---,0.00,VWS V12.08,2013-03-08 07:58:00,
2013-03-08 02:03:00,24.5,19.5,29.55,ESE,121,0.0,1.0,81,0.00,,---,0.00,VWS V12.08,2013-03-08 08:03:00,
2013-03-08 02:08:00,24.4,19.4,29.55,ESE,118,0.0,1.0,81,0.00,,---,0.00,VWS V12.08,2013-03-08 08:08:00,
2013-03-08 02:13:00,24.2,19.2,29.54,SE,125,0.0,2.0,81,0.00,,---,0.00,VWS V12.08,2013-03-08 08:13:00,
2013-03-08 02:18:00,24.1,19.4,29.55,SE,125,0.0,2.0,82,0.00,,---,0.00,VWS V12.08,2013-03-08 08:18:00,
2013-03-08 02:23:00,24.0,19.3,29.54,ESE,118,0.0,4.0,82,0.00,,---,0.00,VWS V12.08,2013-03-08 08:23:00,
2013-03-08 02:28:00,23.9,19.2,29.54,ESE,121,0.0,4.0,82,0.00,,---,0.00,VWS V12.08,2013-03-08 08:28:00,
2013-03-08 02:33:00,23.8,19.1,29.54,SE,126,0.0,1.0,82,0.00,,---,0.00,VWS V12.08,2013-03-08 08:33:00,
2013-03-08 02:38:00,23.8,19.1,29.54,SE,128,0.0,2.0,82,0.00,,---,0.00,VWS V12.08,2013-03-08 08:38:00,
2013-03-08 02:43:00,23.9,19.5,29.54,ESE,111,0.0,7.0,83,0.00,,---,0.00,VWS V12.08,2013-03-08 08:43:00,
2013-03-08 02:49:00,23.8,19.4,29.54,ESE,121,0.0,7.0,83,0.00,,---,0.00,VWS V12.08,2013-03-08 08:49:00,
2013-03-08 02:54:00,23.7,19.3,29.54,SE,125,0.0,7.0,83,0.00,,---,0.00,VWS V12.08,2013-03-08 08:54:00,
2013-03-08 02:59:00,23.7,19.3,29.54,SE,125,0.0,7.0,83,0.00,,---,0.00,VWS V12.08,2013-03-08 08:59:00,
2013-03-08 03:04:00,23.7,19.6,29.54,SE,125,0.0,1.0,84,0.00,,---,0.00,VWS V12.08,2013-03-08 09:04:00,
2013-03-08 03:10:00,23.6,19.5,29.53,ESE,122,0.0,2.0,84,0.00,,---,0.00,VWS V12.08,2013-03-08 09:10:00,
2013-03-08 03:15:00,23.6,19.5,29.53,SE,124,0.0,2.0,84,0.00,,---,0.00,VWS V12.08,2013-03-08 09:15:00,
2013-03-08 03:21:00,23.6,19.5,29.54,SE,125,0.0,2.0,84,0.00,,---,0.00,VWS V12.08,2013-03-08 09:21:00,
2013-03-08 03:27:00,23.7,19.6,29.53,SE,124,0.0,2.0,84,0.00,,---,0.00,VWS V12.08,2013-03-08 09:27:00,
2013-03-08 03:33:00,23.8,19.7,29.53,SE,126,0.0,1.0,84,0.00,,---,0.00,VWS V12.08,2013-03-08 09:33:00,
2013-03-08 03:38:00,23.9,20.1,29.53,SE,127,0.0,1.0,85,0.00,,---,0.00,VWS V12.08,2013-03-08 09:38:00,
2013-03-08 03:43:00,24.1,20.2,29.54,SE,127,0.0,1.0,85,0.00,,---,0.00,VWS V12.08,2013-03-08 09:43:00,
2013-03-08 03:48:00,24.2,20.4,29.54,SE,129,0.0,1.0,85,0.00,,---,0.00,VWS V12.08,2013-03-08 09:48:00,
2013-03-08 03:53:00,24.3,20.5,29.53,SE,128,0.0,1.0,85,0.00,,---,0.00,VWS V12.08,2013-03-08 09:53:00,
2013-03-08 03:58:00,24.5,20.6,29.54,SE,128,0.0,1.0,85,0.00,,---,0.00,VWS V12.08,2013-03-08 09:58:00,
2013-03-08 04:03:00,24.6,20.7,29.54,SE,128,0.0,1.0,85,0.00,,---,0.00,VWS V12.08,2013-03-08 10:03:00,
2013-03-08 04:08:00,24.7,20.8,29.53,SE,127,1.0,1.0,85,0.00,,---,0.00,VWS V12.08,2013-03-08 10:08:00,
2013-03-08 04:14:00,24.7,20.8,29.53,SE,127,0.0,1.0,85,0.00,,---,0.00,VWS V12.08,2013-03-08 10:14:00,
2013-03-08 04:19:00,24.8,20.9,29.53,SE,128,0.0,1.0,85,0.00,,---,0.00,VWS V12.08,2013-03-08 10:19:00,
2013-03-08 04:24:00,24.8,20.9,29.53,SE,127,0.0,1.0,85,0.00,,---,0.00,VWS V12.08,2013-03-08 10:24:00,
2013-03-08 04:30:00,24.9,21.0,29.53,ESE,114,0.0,8.0,85,0.00,,---,0.00,VWS V12.08,2013-03-08 10:30:00,
2013-03-08 04:35:00,25.0,21.4,29.53,ESE,118,0.0,1.0,86,0.00,,---,0.00,VWS V12.08,2013-03-08 10:35:00,
2013-03-08 04:40:00,24.9,21.3,29.54,ESE,121,0.0,1.0,86,0.00,,---,0.00,VWS V12.08,2013-03-08 10:40:00,
2013-03-08 04:46:00,24.9,21.0,29.54,SE,128,0.0,1.0,85,0.00,,---,0.00,VWS V12.08,2013-03-08 10:46:00,
2013-03-08 04:51:00,24.8,21.2,29.54,SE,127,0.0,1.0,86,0.00,,---,0.00,VWS V12.08,2013-03-08 10:51:00,
2013-03-08 04:57:00,24.9,21.3,29.54,SE,128,0.0,1.0,86,0.00,,---,0.00,VWS V12.08,2013-03-08 10:57:00,
2013-03-08 05:02:00,24.9,21.3,29.53,SE,127,0.0,1.0,86,0.00,,---,0.00,VWS V12.08,2013-03-08 11:02:00,
2013-03-08 05:07:00,24.9,21.3,29.54,SE,128,0.0,1.0,86,0.00,,---,0.00,VWS V12.08,2013-03-08 11:07:00,
2013-03-08 05:14:00,25.0,21.4,29.53,SE,130,0.0,1.0,86,0.00,,---,0.00,VWS V12.08,2013-03-08 11:14:00,
2013-03-08 05:20:00,25.0,21.4,29.54,SE,127,0.0,1.0,86,0.00,,---,0.00,VWS V12.08,2013-03-08 11:20:00,
2013-03-08 05:25:00,24.8,21.2,29.54,SE,127,0.0,1.0,86,0.00,,---,0.00,VWS V12.08,2013-03-08 11:25:00,
2013-03-08 05:30:00,24.8,21.2,29.53,SE,126,0.0,1.0,86,0.00,,---,0.00,VWS V12.08,2013-03-08 11:30:00,
2013-03-08 05:35:00,24.8,21.2,29.54,SE,127,0.0,1.0,86,0.00,,---,0.00,VWS V12.08,2013-03-08 11:35:00,
2013-03-08 05:40:00,24.8,21.2,29.54,SE,128,0.0,1.0,86,0.00,,---,0.00,VWS V12.08,2013-03-08 11:40:00,
2013-03-08 05:46:00,24.8,21.2,29.54,SE,126,0.0,1.0,86,0.00,,---,0.00,VWS V12.08,2013-03-08 11:46:00,
2013-03-08 05:52:00,24.8,21.2,29.54,SE,128,0.0,1.0,86,0.00,,---,0.00,VWS V12.08,2013-03-08 11:52:00,
2013-03-08 05:57:00,24.8,21.2,29.55,SE,134,0.0,1.0,86,0.00,,---,0.00,VWS V12.08,2013-03-08 11:57:00,
2013-03-08 06:03:00,24.8,21.2,29.54,ESE,123,1.0,1.0,86,0.00,,---,0.00,VWS V12.08,2013-03-08 12:03:00,
2013-03-08 06:08:00,24.7,21.1,29.54,SE,124,0.0,1.0,86,0.00,,---,0.00,VWS V12.08,2013-03-08 12:08:00,
2013-03-08 06:14:00,24.7,21.1,29.55,SE,125,0.0,1.0,86,0.00,,---,0.00,VWS V12.08,2013-03-08 12:14:00,
2013-03-08 06:19:00,24.7,21.1,29.54,SE,125,0.0,1.0,86,0.00,,---,0.00,VWS V12.08,2013-03-08 12:19:00,
2013-03-08 06:24:00,24.6,21.0,29.55,SE,126,0.0,1.0,86,0.00,,---,0.00,VWS V12.08,2013-03-08 12:24:00,
2013-03-08 06:29:00,24.6,21.0,29.54,SE,128,0.0,1.0,86,0.00,,---,0.00,VWS V12.08,2013-03-08 12:29:00,
2013-03-08 06:34:00,24.6,21.0,29.55,SE,131,0.0,1.0,86,0.00,,---,0.00,VWS V12.08,2013-03-08 12:34:00,
2013-03-08 06:39:00,24.5,20.9,29.54,SE,129,0.0,2.0,86,0.00,,---,0.00,VWS V12.08,2013-03-08 12:39:00,
2013-03-08 06:44:00,24.6,21.0,29.54,SE,127,0.0,2.0,86,0.00,,---,0.00,VWS V12.08,2013-03-08 12:44:00,
2013-03-08 06:49:00,24.6,21.0,29.54,SE,129,0.0,2.0,86,0.00,,---,0.00,VWS V12.08,2013-03-08 12:49:00,
2013-03-08 06:56:00,24.5,20.9,29.53,SE,130,0.0,2.0,86,0.00,,---,0.00,VWS V12.08,2013-03-08 12:56:00,
2013-03-08 07:01:00,24.6,21.0,29.54,SE,130,0.0,1.0,86,0.00,,---,0.00,VWS V12.08,2013-03-08 13:01:00,
2013-03-08 07:06:00,24.6,21.0,29.54,SE,131,0.0,1.0,86,0.00,,---,0.00,VWS V12.08,2013-03-08 13:06:00,
2013-03-08 07:12:00,24.8,21.2,29.53,SE,130,0.0,1.0,86,0.00,,---,0.00,VWS V12.08,2013-03-08 13:12:00,
2013-03-08 07:17:00,24.8,21.2,29.54,SE,126,0.0,1.0,86,0.00,,---,0.00,VWS V12.08,2013-03-08 13:17:00,
2013-03-08 07:23:00,24.9,21.3,29.54,SE,125,0.0,1.0,86,0.00,,---,0.00,VWS V12.08,2013-03-08 13:23:00,
2013-03-08 07:28:00,25.1,21.5,29.54,SE,130,1.0,1.0,86,0.00,,---,0.00,VWS V12.08,2013-03-08 13:28:00,
2013-03-08 07:33:00,25.3,21.7,29.54,East,101,0.0,8.0,86,0.00,,---,0.00,VWS V12.08,2013-03-08 13:33:00,
2013-03-08 07:38:00,25.4,21.8,29.54,ESE,106,0.0,8.0,86,0.00,,---,0.00,VWS V12.08,2013-03-08 13:38:00,
2013-03-08 07:43:00,25.6,22.0,29.54,ESE,112,0.0,8.0,86,0.00,,---,0.00,VWS V12.08,2013-03-08 13:43:00,
2013-03-08 07:50:00,25.8,22.2,29.55,SE,129,0.0,8.0,86,0.00,,---,0.00,VWS V12.08,2013-03-08 13:50:00,
2013-03-08 07:55:00,26.2,22.6,29.55,SE,131,0.0,10.0,86,0.00,,---,0.00,VWS V12.08,2013-03-08 13:55:00,
2013-03-08 08:00:00,26.3,22.7,29.56,SE,130,0.0,10.0,86,0.00,,---,0.00,VWS V12.08,2013-03-08 14:00:00,
2013-03-08 08:10:00,26.6,23.0,29.56,SE,134,0.0,1.0,86,0.00,,---,0.00,VWS V12.08,2013-03-08 14:10:00,
2013-03-08 08:16:00,26.7,23.1,29.56,SE,135,0.0,1.0,86,0.00,,---,0.00,VWS V12.08,2013-03-08 14:16:00,
2013-03-08 08:21:00,26.8,23.2,29.56,SE,137,0.0,1.0,86,0.00,,---,0.00,VWS V12.08,2013-03-08 14:21:00,
2013-03-08 08:26:00,27.0,23.1,29.55,SE,139,0.0,1.0,85,0.00,,---,0.00,VWS V12.08,2013-03-08 14:26:00,
2013-03-08 08:31:00,27.5,23.9,29.56,SE,140,0.0,1.0,86,0.00,,---,0.00,VWS V12.08,2013-03-08 14:31:00,
2013-03-08 08:37:00,27.8,23.9,29.55,SE,142,0.0,1.0,85,0.00,,---,0.00,VWS V12.08,2013-03-08 14:37:00,
2013-03-08 08:42:00,27.8,23.9,29.55,SE,142,0.0,2.0,85,0.00,,---,0.00,VWS V12.08,2013-03-08 14:42:00,
2013-03-08 08:47:00,28.2,24.0,29.55,SE,143,0.0,2.0,84,0.00,,---,0.00,VWS V12.08,2013-03-08 14:47:00,
2013-03-08 08:53:00,28.5,24.6,29.55,SE,143,0.0,2.0,85,0.00,,---,0.00,VWS V12.08,2013-03-08 14:53:00,
2013-03-08 08:58:00,28.7,24.5,29.55,SE,143,0.0,2.0,84,0.00,,---,0.00,VWS V12.08,2013-03-08 14:58:00,
2013-03-08 09:04:00,29.1,24.9,29.56,SE,142,0.0,0.0,84,0.00,,---,0.00,VWS V12.08,2013-03-08 15:04:00,
2013-03-08 09:09:00,29.5,25.3,29.56,SE,143,1.0,1.0,84,0.00,,---,0.00,VWS V12.08,2013-03-08 15:09:00,
2013-03-08 09:14:00,29.9,25.4,29.56,SE,145,0.0,3.0,83,0.00,,---,0.00,VWS V12.08,2013-03-08 15:14:00,
2013-03-08 09:20:00,30.4,25.9,29.56,SE,145,0.0,3.0,83,0.00,,---,0.00,VWS V12.08,2013-03-08 15:20:00,
2013-03-08 09:25:00,30.5,25.7,29.55,SE,145,0.0,3.0,82,0.00,,---,0.00,VWS V12.08,2013-03-08 15:25:00,
2013-03-08 09:30:00,30.9,26.1,29.55,SE,145,0.0,0.0,82,0.00,,---,0.00,VWS V12.08,2013-03-08 15:30:00,
2013-03-08 09:36:00,31.2,26.4,29.55,SE,145,2.0,2.0,82,0.00,,---,0.00,VWS V12.08,2013-03-08 15:36:00,
2013-03-08 09:42:00,31.5,26.4,29.55,SSE,147,0.0,2.0,81,0.00,,---,0.00,VWS V12.08,2013-03-08 15:42:00,
2013-03-08 09:47:00,31.8,26.4,29.55,SSE,147,0.0,2.0,80,0.00,,---,0.00,VWS V12.08,2013-03-08 15:47:00,
2013-03-08 09:52:00,32.0,26.5,29.55,SSE,147,0.0,2.0,80,0.00,,---,0.00,VWS V12.08,2013-03-08 15:52:00,
2013-03-08 09:58:00,32.3,26.8,29.54,SE,131,0.0,9.0,80,0.00,,---,0.00,VWS V12.08,2013-03-08 15:58:00,
2013-03-08 10:04:00,33.1,27.6,29.55,SE,141,0.0,1.0,80,0.00,,---,0.00,VWS V12.08,2013-03-08 16:04:00,
2013-03-08 10:10:00,33.9,28.1,29.54,SE,145,0.0,1.0,79,0.00,,---,0.00,VWS V12.08,2013-03-08 16:10:00,
2013-03-08 10:16:00,34.3,28.2,29.55,SE,143,0.0,1.0,78,0.00,,---,0.00,VWS V12.08,2013-03-08 16:16:00,
2013-03-08 10:22:00,34.9,28.8,29.55,SSE,149,0.0,1.0,78,0.00,,---,0.00,VWS V12.08,2013-03-08 16:22:00,
2013-03-08 10:27:00,35.4,28.9,29.55,SSE,152,0.0,6.0,77,0.00,,---,0.00,VWS V12.08,2013-03-08 16:27:00,
2013-03-08 10:33:00,35.9,28.8,29.55,SSE,154,0.0,1.0,75,0.00,,---,0.00,VWS V12.08,2013-03-08 16:33:00,
2013-03-08 10:38:00,35.9,28.8,29.55,SSE,152,0.0,5.0,75,0.00,,---,0.00,VWS V12.08,2013-03-08 16:38:00,
2013-03-08 10:43:00,36.0,28.9,29.55,SSE,154,0.0,5.0,75,0.00,,---,0.00,VWS V12.08,2013-03-08 16:43:00,
2013-03-08 10:48:00,36.3,28.8,29.54,SSE,154,1.0,5.0,74,0.00,,---,0.00,VWS V12.08,2013-03-08 16:48:00,
2013-03-08 10:54:00,36.5,29.0,29.55,SSE,154,0.0,5.0,74,0.00,,---,0.00,VWS V12.08,2013-03-08 16:54:00,
2013-03-08 10:59:00,36.9,29.1,29.55,SSE,156,1.0,5.0,73,0.00,,---,0.00,VWS V12.08,2013-03-08 16:59:00,
2013-03-08 11:04:00,37.0,28.8,29.54,SSE,151,0.0,8.0,72,0.00,,---,0.00,VWS V12.08,2013-03-08 17:04:00,
2013-03-08 11:15:00,37.2,29.0,29.54,SSE,150,0.0,8.0,72,0.00,,---,0.00,VWS V12.08,2013-03-08 17:15:00,
2013-03-08 11:21:00,37.9,29.7,29.54,SSE,154,1.0,8.0,72,0.00,,---,0.00,VWS V12.08,2013-03-08 17:21:00,
2013-03-08 11:26:00,37.9,29.7,29.53,SSE,156,0.0,8.0,72,0.00,,---,0.00,VWS V12.08,2013-03-08 17:26:00,
2013-03-08 11:31:00,38.0,29.5,29.54,SSE,152,0.0,1.0,71,0.00,,---,0.00,VWS V12.08,2013-03-08 17:31:00,
2013-03-08 11:36:00,37.8,29.3,29.54,SSE,151,0.0,2.0,71,0.00,,---,0.00,VWS V12.08,2013-03-08 17:36:00,
2013-03-08 11:41:00,38.1,29.5,29.54,SSE,148,0.0,8.0,71,0.00,,---,0.00,VWS V12.08,2013-03-08 17:41:00,
2013-03-08 11:46:00,38.5,29.9,29.54,SSE,152,0.0,8.0,71,0.00,,---,0.00,VWS V12.08,2013-03-08 17:46:00,
2013-03-08 11:52:00,38.6,30.0,29.53,SSE,154,0.0,8.0,71,0.00,,---,0.00,VWS V12.08,2013-03-08 17:52:00,
2013-03-08 11:57:00,38.6,29.7,29.53,SSE,155,0.0,8.0,70,0.00,,---,0.00,VWS V12.08,2013-03-08 17:57:00,
2013-03-08 12:02:00,38.4,29.8,29.53,SSE,154,0.0,2.0,71,0.00,,---,0.00,VWS V12.08,2013-03-08 18:02:00,
2013-03-08 12:07:00,38.8,29.9,29.53,SSE,150,0.0,2.0,70,0.00,,---,0.00,VWS V12.08,2013-03-08 18:07:00,
2013-03-08 12:12:00,38.3,29.4,29.52,SSE,149,1.0,2.0,70,0.00,,---,0.00,VWS V12.08,2013-03-08 18:12:00,
2013-03-08 12:18:00,38.3,29.7,29.52,SSE,148,0.0,2.0,71,0.00,,---,0.00,VWS V12.08,2013-03-08 18:18:00,
2013-03-08 12:23:00,38.5,29.6,29.52,SSE,148,0.0,2.0,70,0.00,,---,0.00,VWS V12.08,2013-03-08 18:23:00,
2013-03-08 12:28:00,38.7,29.8,29.52,SSE,148,1.0,2.0,70,0.00,,---,0.00,VWS V12.08,2013-03-08 18:28:00,
2013-03-08 12:33:00,38.9,30.0,29.52,SSE,148,1.0,1.0,70,0.00,,---,0.00,VWS V12.08,2013-03-08 18:33:00,
2013-03-08 12:38:00,39.2,30.2,29.52,SE,126,0.0,1.0,70,0.00,,---,0.00,VWS V12.08,2013-03-08 18:38:00,
2013-03-08 12:43:00,39.5,30.5,29.52,SE,127,0.0,2.0,70,0.00,,---,0.00,VWS V12.08,2013-03-08 18:43:00,
2013-03-08 12:49:00,39.4,30.1,29.52,SE,136,0.0,2.0,69,0.00,,---,0.00,VWS V12.08,2013-03-08 18:49:00,
2013-03-08 12:55:00,39.6,29.9,29.51,SE,132,0.0,2.0,68,0.00,,---,0.00,VWS V12.08,2013-03-08 18:55:00,
2013-03-08 13:00:00,39.9,29.9,29.51,ESE,113,1.0,1.0,67,0.00,,---,0.00,VWS V12.08,2013-03-08 19:00:00,
2013-03-08 13:05:00,39.9,29.9,29.50,ESE,120,2.0,2.0,67,0.00,,---,0.00,VWS V12.08,2013-03-08 19:05:00,
2013-03-08 13:10:00,39.9,29.9,29.50,ESE,105,1.0,2.0,67,0.00,,---,0.00,VWS V12.08,2013-03-08 19:10:00,
2013-03-08 13:15:00,39.9,29.9,29.50,SE,135,0.0,2.0,67,0.00,,---,0.00,VWS V12.08,2013-03-08 19:15:00,
2013-03-08 13:20:00,40.0,30.3,29.50,SE,140,0.0,2.0,68,0.00,,---,0.00,VWS V12.08,2013-03-08 19:20:00,
2013-03-08 13:25:00,40.2,30.1,29.50,SE,126,0.0,9.0,67,0.00,,---,0.00,VWS V12.08,2013-03-08 19:25:00,
2013-03-08 13:31:00,40.4,30.3,29.50,SE,146,0.0,2.0,67,0.00,,---,0.00,VWS V12.08,2013-03-08 19:31:00,
2013-03-08 13:36:00,40.4,30.3,29.50,SE,146,0.0,2.0,67,0.00,,---,0.00,VWS V12.08,2013-03-08 19:36:00,
2013-03-08 13:41:00,40.2,30.1,29.49,ESE,105,0.0,11.0,67,0.00,,---,0.00,VWS V12.08,2013-03-08 19:41:00,
2013-03-08 13:46:00,40.1,29.7,29.49,East,95,8.0,12.0,66,0.00,,---,0.00,VWS V12.08,2013-03-08 19:46:00,
2013-03-08 13:51:00,40.3,30.2,29.49,SE,127,0.0,12.0,67,0.00,,---,0.00,VWS V12.08,2013-03-08 19:51:00,
2013-03-08 13:56:00,40.3,29.9,29.49,SE,137,1.0,12.0,66,0.00,,---,0.00,VWS V12.08,2013-03-08 19:56:00,
2013-03-08 14:02:00,40.4,30.3,29.48,ESE,120,0.0,1.0,67,0.00,,---,0.00,VWS V12.08,2013-03-08 20:02:00,
2013-03-08 14:08:00,40.6,30.1,29.48,ESE,121,0.0,7.0,66,0.00,,---,0.00,VWS V12.08,2013-03-08 20:08:00,
2013-03-08 14:14:00,40.4,30.3,29.48,ESE,123,1.0,7.0,67,0.00,,---,0.00,VWS V12.08,2013-03-08 20:14:00,
2013-03-08 14:20:00,40.8,30.3,29.49,SE,129,0.0,7.0,66,0.00,,---,0.00,VWS V12.08,2013-03-08 20:20:00,
2013-03-08 14:26:00,40.9,30.4,29.49,SE,128,9.0,9.0,66,0.00,,---,0.00,VWS V12.08,2013-03-08 20:26:00,
2013-03-08 14:31:00,40.9,30.4,29.49,ESE,109,11.0,11.0,66,0.00,,---,0.00,VWS V12.08,2013-03-08 20:31:00,
2013-03-08 14:36:00,41.0,30.5,29.50,ESE,107,0.0,11.0,66,0.00,,---,0.00,VWS V12.08,2013-03-08 20:36:00,
2013-03-08 14:41:00,41.3,30.8,29.50,ESE,123,0.0,11.0,66,0.00,,---,0.00,VWS V12.08,2013-03-08 20:41:00,
2013-03-08 14:46:00,41.2,31.1,29.50,ESE,120,0.0,11.0,67,0.00,,---,0.00,VWS V12.08,2013-03-08 20:46:00,
2013-03-08 14:51:00,41.2,31.1,29.50,ESE,106,0.0,11.0,67,0.00,,---,0.00,VWS V12.08,2013-03-08 20:51:00,
2013-03-08 14:56:00,41.1,31.0,29.49,ESE,110,1.0,11.0,67,0.00,,---,0.00,VWS V12.08,2013-03-08 20:56:00,
2013-03-08 15:01:00,41.0,30.9,29.49,ESE,114,0.0,2.0,67,0.00,,---,0.00,VWS V12.08,2013-03-08 21:01:00,
2013-03-08 15:14:00,41.1,30.6,29.49,ESE,119,0.0,2.0,66,0.00,,---,0.00,VWS V12.08,2013-03-08 21:14:00,
2013-03-08 15:20:00,41.2,30.7,29.49,ESE,117,0.0,2.0,66,0.00,,---,0.00,VWS V12.08,2013-03-08 21:20:00,
2013-03-08 15:25:00,41.1,30.6,29.50,ESE,115,0.0,8.0,66,0.00,,---,0.00,VWS V12.08,2013-03-08 21:25:00,
2013-03-08 15:31:00,41.2,30.7,29.50,ESE,123,0.0,1.0,66,0.00,,---,0.00,VWS V12.08,2013-03-08 21:31:00,
2013-03-08 15:36:00,40.9,30.8,29.49,SE,124,0.0,2.0,67,0.00,,---,0.00,VWS V12.08,2013-03-08 21:36:00,
2013-03-08 15:41:00,40.7,30.6,29.49,ESE,122,0.0,2.0,67,0.00,,---,0.00,VWS V12.08,2013-03-08 21:41:00,
2013-03-08 15:46:00,40.3,30.6,29.49,ESE,121,0.0,2.0,68,0.00,,---,0.00,VWS V12.08,2013-03-08 21:46:00,
2013-03-08 15:51:00,40.2,30.5,29.48,ESE,123,0.0,2.0,68,0.00,,---,0.00,VWS V12.08,2013-03-08 21:51:00,
2013-03-08 15:56:00,40.3,30.6,29.48,ESE,123,0.0,10.0,68,0.00,,---,0.00,VWS V12.08,2013-03-08 21:56:00,
2013-03-08 16:01:00,40.2,30.5,29.48,SE,130,0.0,2.0,68,0.00,,---,0.00,VWS V12.08,2013-03-08 22:01:00,
2013-03-08 16:06:00,40.1,30.4,29.48,ESE,120,0.0,2.0,68,0.00,,---,0.00,VWS V12.08,2013-03-08 22:06:00,
2013-03-08 16:12:00,39.9,30.6,29.47,ESE,122,0.0,2.0,69,0.00,,---,0.00,VWS V12.08,2013-03-08 22:12:00,
2013-03-08 16:18:00,39.7,30.4,29.46,ESE,111,0.0,10.0,69,0.00,,---,0.00,VWS V12.08,2013-03-08 22:18:00,
2013-03-08 16:23:00,39.8,30.1,29.47,SE,124,0.0,10.0,68,0.00,,---,0.00,VWS V12.08,2013-03-08 22:23:00,
2013-03-08 16:28:00,39.7,30.0,29.47,SE,125,1.0,10.0,68,0.00,,---,0.00,VWS V12.08,2013-03-08 22:28:00,
2013-03-08 16:33:00,39.5,30.2,29.47,ESE,123,0.0,2.0,69,0.00,,---,0.00,VWS V12.08,2013-03-08 22:33:00,
2013-03-08 16:38:00,39.3,30.0,29.47,SE,124,0.0,2.0,69,0.00,,---,0.00,VWS V12.08,2013-03-08 22:38:00,
2013-03-08 16:43:00,39.2,29.9,29.47,SE,125,0.0,2.0,69,0.00,,---,0.00,VWS V12.08,2013-03-08 22:43:00,
2013-03-08 16:49:00,39.1,29.8,29.47,SE,127,0.0,2.0,69,0.00,,---,0.00,VWS V12.08,2013-03-08 22:49:00,
2013-03-08 16:55:00,38.9,29.6,29.47,SE,128,0.0,2.0,69,0.00,,---,0.00,VWS V12.08,2013-03-08 22:55:00,
2013-03-08 17:00:00,38.8,29.9,29.47,SE,128,0.0,0.0,70,0.00,,---,0.00,VWS V12.08,2013-03-08 23:00:00,
2013-03-08 17:05:00,38.6,30.0,29.47,SE,127,0.0,1.0,71,0.00,,---,0.00,VWS V12.08,2013-03-08 23:05:00,
2013-03-08 17:10:00,38.5,29.9,29.46,SE,127,0.0,2.0,71,0.00,,---,0.00,VWS V12.08,2013-03-08 23:10:00,
2013-03-08 17:15:00,38.6,30.4,29.45,East,93,0.0,3.0,72,0.00,,---,0.00,VWS V12.08,2013-03-08 23:15:00,
2013-03-08 17:20:00,38.6,30.0,29.45,ESE,114,0.0,11.0,71,0.00,,---,0.00,VWS V12.08,2013-03-08 23:20:00,
2013-03-08 17:25:00,38.6,30.0,29.45,ESE,113,0.0,11.0,71,0.00,,---,0.00,VWS V12.08,2013-03-08 23:25:00,
2013-03-08 17:30:00,38.5,29.9,29.45,ESE,119,0.0,0.0,71,0.00,,---,0.00,VWS V12.08,2013-03-08 23:30:00,
2013-03-08 17:35:00,38.3,29.7,29.45,SE,125,0.0,9.0,71,0.00,,---,0.00,VWS V12.08,2013-03-08 23:35:00,
2013-03-08 17:40:00,38.1,29.5,29.45,ESE,105,0.0,9.0,71,0.00,,---,0.00,VWS V12.08,2013-03-08 23:40:00,
2013-03-08 17:45:00,37.9,29.7,29.45,ESE,108,1.0,9.0,72,0.00,,---,0.00,VWS V12.08,2013-03-08 23:45:00,
2013-03-08 17:50:00,37.7,29.5,29.44,East,94,1.0,9.0,72,0.00,,---,0.00,VWS V12.08,2013-03-08 23:50:00,
2013-03-08 17:56:00,37.4,29.2,29.44,ESE,104,5.0,10.0,72,0.00,,---,0.00,VWS V12.08,2013-03-08 23:56:00,
2013-03-08 18:01:00,37.4,29.2,29.44,ESE,108,0.0,2.0,72,0.00,,---,0.00,VWS V12.08,2013-03-09 00:01:00,
2013-03-08 18:06:00,37.3,29.1,29.44,ESE,107,0.0,2.0,72,0.00,,---,0.00,VWS V12.08,2013-03-09 00:06:00,
2013-03-08 18:12:00,37.4,29.2,29.45,ESE,114,0.0,2.0,72,0.00,,---,0.00,VWS V12.08,2013-03-09 00:12:00,
2013-03-08 18:17:00,37.3,29.1,29.44,ESE,121,0.0,5.0,72,0.00,,---,0.00,VWS V12.08,2013-03-09 00:17:00,
2013-03-08 18:22:00,37.2,29.4,29.44,SE,127,0.0,5.0,73,0.00,,---,0.00,VWS V12.08,2013-03-09 00:22:00,
2013-03-08 18:27:00,37.0,29.2,29.43,SE,125,0.0,5.0,73,0.00,,---,0.00,VWS V12.08,2013-03-09 00:27:00,
2013-03-08 18:32:00,36.9,29.4,29.43,ESE,121,0.0,1.0,74,0.00,,---,0.00,VWS V12.08,2013-03-09 00:32:00,
2013-03-08 18:37:00,36.8,29.3,29.43,ESE,115,0.0,2.0,74,0.00,,---,0.00,VWS V12.08,2013-03-09 00:37:00,
2013-03-08 18:42:00,36.7,29.2,29.43,ESE,113,0.0,11.0,74,0.00,,---,0.00,VWS V12.08,2013-03-09 00:42:00,
2013-03-08 18:47:00,36.8,29.3,29.43,ESE,118,0.0,11.0,74,0.00,,---,0.00,VWS V12.08,2013-03-09 00:47:00,
2013-03-08 18:52:00,36.9,29.4,29.43,SE,124,0.0,11.0,74,0.00,,---,0.00,VWS V12.08,2013-03-09 00:52:00,
2013-03-08 18:57:00,37.1,29.6,29.43,SE,126,0.0,11.0,74,0.00,,---,0.00,VWS V12.08,2013-03-09 00:57:00,
2013-03-08 19:02:00,37.0,29.5,29.42,SE,125,0.0,1.0,74,0.00,,---,0.00,VWS V12.08,2013-03-09 01:02:00,
2013-03-08 19:08:00,37.1,29.6,29.42,ESE,123,0.0,2.0,74,0.00,,---,0.00,VWS V12.08,2013-03-09 01:08:00,
2013-03-08 19:14:00,37.0,29.5,29.42,ESE,118,0.0,2.0,74,0.00,,---,0.00,VWS V12.08,2013-03-09 01:14:00,
2013-03-08 19:20:00,36.8,29.3,29.42,ESE,108,0.0,2.0,74,0.00,,---,0.00,VWS V12.08,2013-03-09 01:20:00,
2013-03-08 19:25:00,36.7,29.5,29.41,ESE,121,0.0,2.0,75,0.00,,---,0.00,VWS V12.08,2013-03-09 01:25:00,
2013-03-08 19:31:00,36.7,29.9,29.41,SE,124,0.0,1.0,76,0.00,,---,0.00,VWS V12.08,2013-03-09 01:31:00,
2013-03-08 19:36:00,36.6,29.8,29.41,ESE,119,0.0,1.0,76,0.00,,---,0.00,VWS V12.08,2013-03-09 01:36:00,
2013-03-08 19:42:00,36.5,29.7,29.41,ESE,114,0.0,2.0,76,0.00,,---,0.00,VWS V12.08,2013-03-09 01:42:00,
2013-03-08 19:48:00,36.5,29.7,29.40,ESE,115,0.0,2.0,76,0.00,,---,0.00,VWS V12.08,2013-03-09 01:48:00,
2013-03-08 19:53:00,36.6,29.8,29.40,SE,128,0.0,2.0,76,0.00,,---,0.00,VWS V12.08,2013-03-09 01:53:00,
2013-03-08 19:58:00,36.6,30.1,29.40,SE,138,0.0,4.0,77,0.00,,---,0.00,VWS V12.08,2013-03-09 01:58:00,
2013-03-08 20:03:00,36.6,30.1,29.40,SE,128,1.0,1.0,77,0.00,,---,0.00,VWS V12.08,2013-03-09 02:03:00,
2013-03-08 20:08:00,36.7,29.9,29.40,SE,126,0.0,2.0,76,0.00,,---,0.00,VWS V12.08,2013-03-09 02:08:00,
2013-03-08 20:14:00,36.7,29.9,29.40,East,93,2.0,2.0,76,0.00,,---,0.00,VWS V12.08,2013-03-09 02:14:00,
2013-03-08 20:19:00,36.7,29.9,29.40,SE,126,0.0,2.0,76,0.00,,---,0.00,VWS V12.08,2013-03-09 02:19:00,
2013-03-08 20:25:00,36.7,30.2,29.40,ESE,111,0.0,2.0,77,0.00,,---,0.00,VWS V12.08,2013-03-09 02:25:00,
2013-03-08 20:30:00,36.7,30.2,29.41,SE,126,0.0,9.0,77,0.00,,---,0.00,VWS V12.08,2013-03-09 02:30:00,
2013-03-08 20:35:00,36.8,30.3,29.40,SE,128,0.0,1.0,77,0.00,,---,0.00,VWS V12.08,2013-03-09 02:35:00,
2013-03-08 20:40:00,36.9,30.4,29.39,SE,127,0.0,6.0,77,0.00,,---,0.00,VWS V12.08,2013-03-09 02:40:00,
2013-03-08 20:45:00,37.0,30.5,29.40,SE,130,0.0,6.0,77,0.00,,---,0.00,VWS V12.08,2013-03-09 02:45:00,
2013-03-08 20:50:00,36.9,30.4,29.40,SE,133,0.0,6.0,77,0.00,,---,0.00,VWS V12.08,2013-03-09 02:50:00,
2013-03-08 20:55:00,36.9,30.4,29.41,SE,135,0.0,6.0,77,0.00,,---,0.00,VWS V12.08,2013-03-09 02:55:00,
2013-03-08 21:00:00,36.8,30.3,29.41,SE,133,0.0,6.0,77,0.00,,---,0.00,VWS V12.08,2013-03-09 03:00:00,
2013-03-08 21:05:00,36.6,30.4,29.41,SE,134,0.0,1.0,78,0.00,,---,0.00,VWS V12.08,2013-03-09 03:05:00,
2013-03-08 21:10:00,36.5,30.3,29.41,SE,135,0.0,1.0,78,0.00,,---,0.00,VWS V12.08,2013-03-09 03:10:00,
2013-03-08 21:15:00,36.5,30.6,29.41,SE,138,0.0,1.0,79,0.00,,---,0.00,VWS V12.08,2013-03-09 03:15:00,
2013-03-08 21:20:00,36.6,30.7,29.41,SE,135,0.0,1.0,79,0.00,,---,0.00,VWS V12.08,2013-03-09 03:20:00,
2013-03-08 21:25:00,36.6,30.7,29.41,SE,133,0.0,1.0,79,0.00,,---,0.00,VWS V12.08,2013-03-09 03:25:00,
2013-03-08 21:30:00,36.7,31.1,29.41,SE,137,0.0,1.0,80,0.00,,---,0.00,VWS V12.08,2013-03-09 03:30:00,
2013-03-08 21:35:00,36.8,30.9,29.40,SE,136,0.0,1.0,79,0.00,,---,0.00,VWS V12.08,2013-03-09 03:35:00,
2013-03-08 21:41:00,36.9,31.3,29.40,SE,137,0.0,3.0,80,0.00,,---,0.00,VWS V12.08,2013-03-09 03:41:00,
2013-03-08 21:47:00,36.9,31.3,29.40,SE,135,0.0,3.0,80,0.00,,---,0.00,VWS V12.08,2013-03-09 03:47:00,
2013-03-08 21:52:00,36.9,31.3,29.40,SE,136,0.0,3.0,80,0.01,,---,0.01,VWS V12.08,2013-03-09 03:52:00,
2013-03-08 21:58:00,36.7,31.4,29.40,SE,136,0.0,3.0,81,0.01,,---,0.01,VWS V12.08,2013-03-09 03:58:00,
2013-03-08 22:03:00,36.7,31.4,29.39,SE,136,0.0,1.0,81,0.01,,---,0.01,VWS V12.08,2013-03-09 04:03:00,
2013-03-08 22:09:00,36.8,31.8,29.39,SE,136,0.0,1.0,82,0.01,,---,0.01,VWS V12.08,2013-03-09 04:09:00,
2013-03-08 22:15:00,36.8,31.8,29.38,SE,136,0.0,1.0,82,0.02,,---,0.02,VWS V12.08,2013-03-09 04:15:00,
2013-03-08 22:20:00,36.8,31.8,29.39,SE,136,0.0,1.0,82,0.02,,---,0.02,VWS V12.08,2013-03-09 04:20:00,
2013-03-08 22:26:00,36.8,32.1,29.39,SE,136,0.0,1.0,83,0.02,,---,0.02,VWS V12.08,2013-03-09 04:26:00,
2013-03-08 22:32:00,36.7,31.7,29.38,SE,135,0.0,0.0,82,0.02,,---,0.02,VWS V12.08,2013-03-09 04:32:00,
2013-03-08 22:37:00,36.5,31.8,29.38,SE,135,0.0,1.0,83,0.02,,---,0.02,VWS V12.08,2013-03-09 04:37:00,
2013-03-08 22:42:00,36.4,31.7,29.38,SE,135,1.0,2.0,83,0.02,,---,0.02,VWS V12.08,2013-03-09 04:42:00,
2013-03-08 22:47:00,36.4,31.7,29.38,SE,135,0.0,2.0,83,0.02,,---,0.02,VWS V12.08,2013-03-09 04:47:00,
2013-03-08 22:52:00,36.3,31.9,29.37,SE,136,0.0,2.0,84,0.02,,---,0.02,VWS V12.08,2013-03-09 04:52:00,
2013-03-08 22:57:00,36.4,31.7,29.37,SE,135,0.0,2.0,83,0.02,,---,0.02,VWS V12.08,2013-03-09 04:57:00,
2013-03-08 23:00:00,36.4,31.7,29.37,SE,135,0.0,2.0,83,0.02,,---,0.02,VWS V12.08,2013-03-09 05:00:00,
2013-03-08 23:02:00,36.4,31.7,29.37,SE,135,0.0,1.0,83,0.01,,---,0.02,VWS V12.08,2013-03-09 05:02:00,
2013-03-08 23:07:00,36.4,31.7,29.37,SE,135,0.0,1.0,83,0.01,,---,0.02,VWS V12.08,2013-03-09 05:07:00,
2013-03-08 23:10:00,36.4,31.7,29.37,SE,137,0.0,1.0,83,0.01,,---,0.02,VWS V12.08,2013-03-09 05:10:00,
2013-03-08 23:16:00,36.4,31.7,29.37,SE,136,0.0,1.0,83,0.01,,---,0.02,VWS V12.08,2013-03-09 05:16:00,
2013-03-08 23:21:00,36.5,31.8,29.36,SE,136,0.0,1.0,83,0.01,,---,0.02,VWS V12.08,2013-03-09 05:21:00,
2013-03-08 23:26:00,36.5,31.8,29.35,SE,138,0.0,1.0,83,0.01,,---,0.02,VWS V12.08,2013-03-09 05:26:00,
2013-03-08 23:31:00,36.6,31.9,29.35,SE,135,0.0,1.0,83,0.00,,---,0.02,VWS V12.08,2013-03-09 05:31:00,
2013-03-08 23:36:00,36.7,32.0,29.35,SE,137,0.0,1.0,83,0.00,,---,0.02,VWS V12.08,2013-03-09 05:36:00,
2013-03-08 23:41:00,36.8,32.1,29.35,SE,137,0.0,1.0,83,0.00,,---,0.02,VWS V12.08,2013-03-09 05:41:00,
2013-03-08 23:46:00,37.0,32.3,29.34,SE,136,0.0,2.0,83,0.00,,---,0.02,VWS V12.08,2013-03-09 05:46:00,
2013-03-08 23:51:00,37.2,32.5,29.34,SE,136,0.0,2.0,83,0.00,,---,0.02,VWS V12.08,2013-03-09 05:51:00,
2013-03-08 23:56:00,37.4,32.7,29.33,SE,136,0.0,2.0,83,0.00,,---,0.02,VWS V12.08,2013-03-09 05:56:00,